Tracking 28799 objects as of 18-Apr-2024
HD Live streaming from Space Station
objects crossing your sky now

FENGYUN 1C DEB

Track FENGYUN 1C DEB now!
10-day predictions


NORAD ID: 31665
Int'l Code: 1999-025CBX
Perigee: 823.8 km
Apogee: 1,108.2 km
Inclination: 98.5 °
Period: 104.2 minutes
Semi major axis: 7336 km
RCS: 0.0067 m2 (small)
Launch date: May 10, 1999
Source: People's Republic of China (PRC)
Launch site: Taiyaun Space Center, China (TSC)

Note: This is SATELLITE DEBRIS
Your satellite tracking list
Your tracking list is empty




NASA's NSSDC Master Catalog

Two Line Element Set (TLE):
1 31665U 99025CBX 24107.48726446  .00002988  00000-0  24648-2 0  9994
2 31665  98.4779 204.1357 0193808  40.8366 320.7131 13.81427313848230
Source of the keplerian elements: AFSPC